Location: North Evanston
(42.0634°N, 87.6976°W)
Time: 05:33:57
(UTC+00:00)

Tiros 1 despin weight - Pass Details

Date: 16 May 2026
Orbit: 554 x 591 km, 48.2° (Epoch: 7 June)

Event Time Altitude Azimuth Distance (km) Brightness Sun altitude
Exits shadow 08:48:18 - 163° (SSE) 1,965 ? -15.9°
Reaches altitude 10° 08:48:54 10° 156° (SSE) 1,858 ? -15.8°
Maximum altitude 08:50:37 12° 132° (SE) 1,715 ? -15.6°
Drops below altitude 10° 08:52:19 10° 108° (ESE) 1,853 ? -15.4°
Sets 08:55:49 0° 78° (ENE) 2,746 ? -14.9°
